Almeria, Spain

2:50 AM CET en Diciembre 13, 2017 (GMT +0100)
Almeria

Tiempo Historia de LEAM - Diciembre, 2017

Change the Weather History Date:

Jueves, Diciembre 7, 2017

  Actual Average Record
Temperature  
Temperatura media 54 ° F -  
Temperatura máxima 63 ° F 60 ° F 73 ° F (2000)
Temperatura mínima 44 ° F 48 ° F 44 ° F (2002)
Degree Days  
Grados día de calefacción 12    
Growing Degree Days 4 (Base 50)    
Moisture  
Punto de rocío 43 ° F    
Average Humidity 69    
Maximum Humidity 87    
Minimum Humidity 43    
Precipitación  
Precipitación 0.00 pul 0.03 pul - ()
Presión al nivel del mar  
Presión al nivel del mar 30.44 pul    
Viento  
Velocidad del viento 11 mph ()    
Velocidad máxima del viento 17 mph    
Max Gust Speed -    
Visibilidad 6.6 Millas    
Eventos      
Averages and records for this station are not official NWS values.
T = Trace of Precipitation, MM = Missing Value Source: Averaged Metar Reports

Daily Weather History Graph

Daily Weather History Graph

Search for Another Location

Airport or City:

Trip Planner

Search our weather history database for the weather conditions in past years. The results will help you decide how hot, cold, wet, or windy it might be!

Date:

Astronomía

Dec. 07, 2017 Salida Puesta
Hora real 8:09 AM CET 5:52 PM CET
Crepúsculo civil 7:40 AM CET 6:21 PM CET
Crepúsculo náutico 7:08 AM CET 6:53 PM CET
Crepúsculo astronómico 6:36 AM CET 7:25 PM CET
Luna 10:20 PM CET (12/7) 11:39 AM CET (12/7)
Horas de luz 10h 41m
Horas de luz
9h 43m
Gibosa menguante, 80% of the Moon is Illuminated
Dic 7
Gibosa menguante
Dic 10
Cuarto menguante
Dic 18
Nueva
Dic 26
Cuarto creciente
Ene 2
Luna llena

Hourly Weather History & Observations

Hora (CET) Temp. Vientos helados Punto de rocío Humedad Presión Visibilidad Wind Dir Velocidad del viento Velocidad de ráfagas Precip Eventos Condiciones
12:00 AM 51 ° F - 43 ° F 66% 30.50 pul - NNO 13.8 mph - -  
12:00 AM 50.0 ° F - 42.8 ° F 76% 30.48 pul 6.2 mi NNO 12.7 mph - N/A   Desconocido
12:30 AM 50.0 ° F - 42.8 ° F 76% 30.48 pul 6.2 mi NNO 9.2 mph - N/A   Desconocido
1:00 AM 49 ° F - 42 ° F 71% 30.48 pul - NNO 12.7 mph - -  
1:00 AM 50.0 ° F - 42.8 ° F 76% 30.48 pul 6.2 mi NNO 12.7 mph - N/A   Desconocido
1:30 AM 48.2 ° F - 41.0 ° F 76% 30.45 pul 6.2 mi NNO 12.7 mph - N/A   Desconocido
2:00 AM 49 ° F - 42 ° F 67% 30.47 pul - NNO 16.1 mph - -  
2:00 AM 48.2 ° F - 41.0 ° F 76% 30.45 pul 6.2 mi NNO 15.0 mph - N/A   Desconocido
2:30 AM 50.0 ° F - 41.0 ° F 71% 30.45 pul 6.2 mi NNO 13.8 mph - N/A   Desconocido
3:00 AM 48 ° F - 41 ° F 69% 30.47 pul - NNO 15.0 mph - -  
3:00 AM 48.2 ° F - 41.0 ° F 76% 30.45 pul 6.2 mi NNO 15.0 mph - N/A   Desconocido
3:30 AM 48.2 ° F - 41.0 ° F 76% 30.45 pul 6.2 mi NNO 12.7 mph - N/A   Desconocido
4:00 AM 47 ° F - 40 ° F 70% 30.47 pul - NNO 15.0 mph - -  
4:00 AM 48.2 ° F - 41.0 ° F 76% 30.45 pul 6.2 mi NNO 15.0 mph - N/A   Desconocido
4:30 AM 48.2 ° F - 41.0 ° F 76% 30.45 pul 6.2 mi NNO 15.0 mph - N/A   Desconocido
5:00 AM 47 ° F - 40 ° F 67% 30.46 pul - NNO 16.1 mph - -  
5:00 AM 46.4 ° F 40.1 ° F 39.2 ° F 76% 30.45 pul 6.2 mi NNO 15.0 mph - N/A   Desconocido
5:30 AM 46.4 ° F 39.8 ° F 39.2 ° F 76% 30.45 pul - NNO 16.1 mph - N/A   Despejado
6:00 AM 46 ° F - 38 ° F 66% 30.45 pul - NNO 17.3 mph - -  
6:00 AM 46.4 ° F 39.5 ° F 39.2 ° F 76% 30.45 pul - NNO 17.3 mph - N/A   Despejado
6:30 AM 46.4 ° F 40.1 ° F 39.2 ° F 76% 30.42 pul - NNO 15.0 mph - N/A   Despejado
7:00 AM 46 ° F - 38 ° F 65% 30.45 pul 25 mi NNO 17.3 mph - -   Nubes dispersas
7:00 AM 46.4 ° F 39.8 ° F 39.2 ° F 76% 30.42 pul - NNO 16.1 mph - N/A   Despejado
7:30 AM 44.6 ° F 37.4 ° F 37.4 ° F 76% 30.45 pul 6.2 mi NNO 16.1 mph - N/A   Parcialmente nublado
8:00 AM 46 ° F - 37 ° F 60% 30.45 pul - NNO 16.1 mph - -  
8:00 AM 44.6 ° F 37.4 ° F 37.4 ° F 76% 30.45 pul 6.2 mi NNO 16.1 mph - N/A   Parcialmente nublado
8:30 AM 46.4 ° F 39.5 ° F 35.6 ° F 66% 30.45 pul 6.2 mi NNO 17.3 mph - N/A   Parcialmente nublado
9:00 AM 47 ° F - 38 ° F 62% 30.46 pul - NNO 16.1 mph - -  
9:00 AM 46.4 ° F 39.8 ° F 39.2 ° F 76% 30.45 pul 6.2 mi NNO 16.1 mph - N/A   Parcialmente nublado
9:30 AM 48.2 ° F - 39.2 ° F 71% 30.45 pul 6.2 mi NNO 15.0 mph - N/A   Parcialmente nublado
10:00 AM 51 ° F - 39 ° F 52% 30.48 pul 31 mi NNO 15.0 mph - -   Nubes dispersas
10:00 AM 50.0 ° F - 39.2 ° F 66% 30.45 pul 6.2 mi NNO 13.8 mph - N/A   Parcialmente nublado
10:30 AM 51.8 ° F - 39.2 ° F 62% 30.48 pul 6.2 mi NNO 13.8 mph - N/A   Parcialmente nublado
11:00 AM 56 ° F - 41 ° F 45% 30.49 pul - NO 11.5 mph - -  
11:00 AM 55.4 ° F - 41.0 ° F 58% 30.48 pul 6.2 mi NNO 11.5 mph - N/A   Parcialmente nublado
11:30 AM 57.2 ° F - 41.0 ° F 55% 30.48 pul 6.2 mi NO 9.2 mph - N/A   Parcialmente nublado
12:00 PM 61 ° F - 44 ° F 43% 30.48 pul - ONO 2.3 mph - -  
12:00 PM 60.8 ° F - 44.6 ° F 55% 30.48 pul 6.2 mi ONO 3.5 mph - N/A   Parcialmente nublado
12:30 PM 60.8 ° F - 44.6 ° F 55% 30.45 pul 6.2 mi Variable 2.3 mph - N/A   Parcialmente nublado
1:00 PM 63 ° F - 46 ° F 43% 30.46 pul 31 mi SSO 4.6 mph - -   Nubes dispersas
1:00 PM 60.8 ° F - 46.4 ° F 59% 30.45 pul 6.2 mi Sur 3.5 mph - N/A   Parcialmente nublado
1:30 PM 60.8 ° F - 44.6 ° F 55% 30.45 pul 6.2 mi SSO 3.5 mph - N/A   Parcialmente nublado
2:00 PM 63 ° F - 46 ° F 43% 30.43 pul - SSO 5.8 mph - -  
2:00 PM 60.8 ° F - 44.6 ° F 55% 30.42 pul 6.2 mi SSO 4.6 mph - N/A   Parcialmente nublado
2:30 PM 60.8 ° F - 46.4 ° F 59% 30.42 pul 6.2 mi SSO 6.9 mph - N/A   Parcialmente nublado
3:00 PM 62 ° F - 47 ° F 47% 30.42 pul - SSO 8.1 mph - -  
3:00 PM 60.8 ° F - 46.4 ° F 59% 30.42 pul 6.2 mi SO 8.1 mph - N/A   Parcialmente nublado
3:30 PM 60.8 ° F - 46.4 ° F 59% 30.39 pul 6.2 mi SSO 6.9 mph - N/A   Parcialmente nublado
4:00 PM 62 ° F - 47 ° F 47% 30.41 pul 31 mi SSO 6.9 mph - -   Nubes dispersas
4:00 PM 60.8 ° F - 46.4 ° F 59% 30.39 pul 6.2 mi SSO 5.8 mph - N/A   Parcialmente nublado
4:30 PM 60.8 ° F - 48.2 ° F 63% 30.39 pul 6.2 mi SSO 5.8 mph - N/A   Parcialmente nublado
5:00 PM 60.8 ° F - 48.2 ° F 63% 30.39 pul - SSO 5.8 mph - N/A   Despejado
5:30 PM 59.0 ° F - 48.2 ° F 67% 30.39 pul - SSO 4.6 mph - N/A   Despejado
6:00 PM 57.2 ° F - 48.2 ° F 72% 30.39 pul - SO 3.5 mph - N/A   Despejado
6:30 PM 55.4 ° F - 48.2 ° F 77% 30.39 pul - SO 3.5 mph - N/A   Despejado
7:00 PM 54 ° F - 47 ° F 72% 30.41 pul 31 mi NNO 1.2 mph - -   Despejado
7:00 PM 53.6 ° F - 48.2 ° F 82% 30.39 pul - Variable 1.2 mph - N/A   Despejado
7:30 PM 53.6 ° F - 48.2 ° F 82% 30.39 pul - Variable 1.2 mph - N/A   Despejado
8:00 PM 53 ° F - 48 ° F 76% 30.42 pul - Norte 3.5 mph - -  
8:00 PM 51.8 ° F - 46.4 ° F 82% 30.42 pul 6.2 mi Norte 3.5 mph - N/A   Nubes dispersas
8:30 PM 53.6 ° F - 48.2 ° F 82% 30.42 pul 6.2 mi Variable 1.2 mph - N/A   Nubes dispersas
9:00 PM 51.8 ° F - 46.4 ° F 82% 30.42 pul 6.2 mi NO 3.5 mph - N/A   Parcialmente nublado
9:30 PM 50.0 ° F - 46.4 ° F 87% 30.42 pul - NNO 1.2 mph - N/A   Despejado
10:00 PM 49 ° F - 46 ° F 84% 30.43 pul 19 mi NNO 5.8 mph - -   Despejado
10:00 PM 50.0 ° F - 46.4 ° F 87% 30.42 pul - NNO 4.6 mph - N/A   Despejado
10:30 PM 50.0 ° F - 46.4 ° F 87% 30.42 pul - NNO 6.9 mph - N/A   Despejado
11:00 PM 50 ° F - 46 ° F 80% 30.43 pul - NNO 6.9 mph - -  
11:00 PM 50.0 ° F - 46.4 ° F 87% 30.42 pul 6.2 mi NNO 6.9 mph - N/A   Desconocido
11:30 PM 50.0 ° F - 44.6 ° F 82% 30.42 pul 6.2 mi NO 8.1 mph - N/A   Desconocido